Overview Statistics Trail Chart Weather Telemetry Raw packets
 

This is the latest recevied weather packets stored in our database for station/object N0KTA-2. If no packets are shown the sender has not sent any weather packets the latest 10 day(s).

<< 26 27 28 29 30 31 32 >>
Time Temp. Humidity Pressure Rain* Wind** Luminosity Snow
1788276503 32.22° C 45% 1010.8 hPa 0 mm - - -
1788275903 31.67° C 46% 1010.8 hPa 0 mm - - -
1788275303 31.11° C 48% 1010.9 hPa 0 mm - - -
1788274703 30.56° C 49% 1011 hPa 0 mm - - -
1788274102 30° C 51% 1011 hPa 0 mm - - -
1788273503 29.44° C 53% 1011.1 hPa 0 mm - - -
1788272903 28.33° C 55% 1011.2 hPa 0 mm - - -
1788272302 27.78° C 56% 1011.2 hPa 0 mm - - -
1788271702 27.78° C 58% 1011.2 hPa 0 mm - - -
1788271103 27.22° C 58% 1011.2 hPa 0 mm - - -
1788270502 26.67° C 58% 1011.3 hPa 0 mm - - -
1788269902 26.11° C 59% 1011.3 hPa 0 mm - - -
1788269304 25.56° C 60% 1011.4 hPa 0 mm - - -
1788268702 25° C 62% 1011.4 hPa 0 mm - - -
1788268103 24.44° C 63% 1011.4 hPa 0 mm - - -
1788267502 23.89° C 64% 1011.3 hPa 0 mm - - -
1788266903 23.33° C 64% 1011.3 hPa 0 mm - - -
1788266302 23.33° C 67% 1011.2 hPa 0 mm - - -
1788265703 22.78° C 67% 1010.9 hPa 0 mm - - -
1788265102 22.78° C 66% 1010.8 hPa 0 mm - - -
1788264502 22.78° C 66% 1010.8 hPa 0 mm - - -
1788263903 22.78° C 66% 1010.5 hPa 0 mm - - -
1788263303 22.78° C 67% 1010.4 hPa 0 mm - - -
1788262703 22.78° C 67% 1010.5 hPa 0 mm - - -
1788262103 22.78° C 67% 1010.5 hPa 0 mm - - -

* Rain latest hour (hover to see other rain measurements)
** Current wind speed in m/s (hover to see current wind gust speed)